Flag for Hungary Weather past 2 weeks in Győr, Hungary

Now
76 °F

Mild.


Feels Like: 77 °F
Forecast: 65 / 84 °F
Wind: 2 mph from Southeast

Location: Gyor

Current Time: Jul 29, 2014 at 12:07:54 PM

Latest Report: Jul 29, 2014 at 11:00 AM


Visibility: N/A

Pressure: 29.81 "Hg

Humidity: 73%

Dew point: 67 °F

Location of GyőrLocation

Historic Weather in Győr — Graph

°F

Győr temperature yesterday

Maximum temperature yesterday: 76 °F (at 4:00 PM)
Minimum temperature yesterday: 64 °F (at 2:00 AM)
Average temperature yesterday: 69 °F

Past Weeks' High & Low Weather Summary

 TemperatureHumidityPressure
High89 °F (Jul 20, 4:00 PM)98% (Jul 18, 4:00 AM)30.10 "Hg (Jul 18, 4:00 AM)
Low59 °F (Jul 24, 6:00 AM)33% (Jul 16, 4:00 PM)29.70 "Hg (Jul 21, 4:00 PM)
Average72 °F73%29.92 "Hg
* Reported Jul 14 10:00 AM — Jul 29 10:00 AM, Győr, Weather by CustomWeather, © 2014

Note: Actual official high and low records may vary slightly from our data, if they occured in-between our weather recording intervals... More about our weather records

Advertising

Győr weather history for previous 24 hours

 ConditionsComfort  
Time TempWeatherWind HumidityBarometerVisibility
10:00 AM
Jul 29
74 °FMild.2 mph76%29.80 "HgN/A
9:00 AM71 °FMild.2 mph85%29.81 "HgN/A
8:00 AM68 °FMild.2 mph92%29.82 "HgN/A
7:00 AM66 °FMild.1 mph96%29.81 "HgN/A
6:00 AM66 °FMild.1 mph95%29.80 "HgN/A
5:00 AM66 °FMild.1 mph95%29.82 "HgN/A
4:00 AM67 °FMild.1 mph95%29.81 "HgN/A
3:00 AM66 °FMild.1 mph96%29.82 "HgN/A
2:00 AM65 °FMild.1 mph96%29.82 "HgN/A
1:00 AM65 °FMild.1 mph95%29.83 "HgN/A
12:00 AM66 °FMild.1 mph91%29.83 "HgN/A
11:00 PM
Jul 28
67 °FMild.1 mph89%29.85 "HgN/A
10:00 PM68 °FMild.1 mph87%29.85 "HgN/A
9:00 PM69 °FMild.1 mph86%29.84 "HgN/A
8:00 PM70 °FMild.1 mph84%29.84 "HgN/A
7:00 PM71 °FMild.2 mph85%29.84 "HgN/A
6:00 PM76 °FMild.5 mph62%29.83 "HgN/A
5:00 PM76 °FMild.2 mph63%29.84 "HgN/A
4:00 PM76 °FMild.3 mph63%29.85 "HgN/A
3:00 PM75 °FMild.3 mph67%29.86 "HgN/A
2:00 PM73 °FMild.2 mph73%29.88 "HgN/A
1:00 PM74 °FMild.2 mph68%29.89 "HgN/A
12:00 PM72 °FMild.2 mph76%29.89 "HgN/A
Weather by CustomWeather, © 2014

See weather overviewHow to use our weather pages